Location: Corcelles
(46.1547°N, 4.7234°E)
Time: 07:13:32
(UTC+00:00)

ADEOS II - Pass Details

Date: 14 July 2020
Orbit: 799 x 801 km, 98.5° (Epoch: 14 August)

Event Time Altitude Azimuth Distance (km) Brightness Sun altitude
Rises 02:57:28 0° 7° (N) 3,322 6.2 -9.7°
Reaches altitude 10° 02:59:56 10° 360° (N) 2,387 5.3 -9.4°
Maximum altitude 03:04:46 38° 293° (WNW) 1,205 2.9 -8.8°
Enters shadow 03:09:34 10° 227° (SW) 2,367 3.8 -8.2°
